TimeEST,TemperatureF,Dew PointF,Humidity,Sea Level PressureIn,VisibilityMPH,Wind Direction,Wind SpeedMPH,Gust SpeedMPH,PrecipitationIn,Events,Conditions,WindDirDegrees,DateUTC
12:53 AM,33.1,27.0,78,30.20,8.0,South,9.2,-,N/A,,Clear,190,2013-01-09 05:53:00
1:53 AM,30.9,27.0,85,30.17,8.0,South,8.1,-,N/A,,Clear,180,2013-01-09 06:53:00
2:53 AM,35.1,28.0,76,30.16,10.0,South,10.4,-,N/A,,Clear,190,2013-01-09 07:53:00
3:53 AM,37.9,30.0,73,30.14,10.0,South,12.7,-,N/A,,Overcast,190,2013-01-09 08:53:00
4:53 AM,37.9,30.0,73,30.12,10.0,SSW,12.7,-,N/A,,Overcast,200,2013-01-09 09:53:00
5:53 AM,39.9,32.0,73,30.12,10.0,SSW,15.0,-,N/A,,Overcast,210,2013-01-09 10:53:00
6:53 AM,39.9,32.0,73,30.11,10.0,SSW,12.7,-,0.00,,Overcast,200,2013-01-09 11:53:00
7:53 AM,39.9,32.0,73,30.13,10.0,SW,17.3,-,N/A,,Scattered Clouds,230,2013-01-09 12:53:00
8:53 AM,39.0,32.0,76,30.16,10.0,SW,15.0,-,N/A,,Clear,230,2013-01-09 13:53:00
9:53 AM,39.9,33.1,77,30.19,10.0,SW,15.0,-,N/A,,Clear,230,2013-01-09 14:53:00
10:53 AM,42.1,34.0,73,30.22,10.0,WSW,13.8,21.9,N/A,,Clear,240,2013-01-09 15:53:00
11:53 AM,43.0,33.1,68,30.22,10.0,WSW,16.1,25.3,N/A,,Clear,250,2013-01-09 16:53:00
12:53 PM,45.0,33.1,63,30.20,10.0,WSW,17.3,25.3,N/A,,Clear,240,2013-01-09 17:53:00
1:53 PM,45.0,34.0,65,30.21,10.0,SW,17.3,24.2,N/A,,Clear,230,2013-01-09 18:53:00
2:53 PM,46.0,32.0,58,30.23,10.0,WSW,23.0,28.8,N/A,,Clear,240,2013-01-09 19:53:00
3:53 PM,45.0,32.0,60,30.25,10.0,WSW,17.3,23.0,N/A,,Clear,250,2013-01-09 20:53:00
4:53 PM,42.1,32.0,67,30.29,10.0,SW,10.4,-,N/A,,Clear,230,2013-01-09 21:53:00
5:53 PM,39.0,32.0,76,30.32,10.0,SW,11.5,-,N/A,,Clear,230,2013-01-09 22:53:00
6:53 PM,37.0,30.9,79,30.35,10.0,SW,11.5,-,N/A,,Clear,230,2013-01-09 23:53:00
7:53 PM,35.1,30.0,82,30.38,10.0,WSW,8.1,-,N/A,,Clear,240,2013-01-10 00:53:00
8:53 PM,34.0,28.9,82,30.41,10.0,SW,9.2,-,N/A,,Clear,230,2013-01-10 01:53:00
9:53 PM,33.1,28.9,85,30.44,10.0,WSW,5.8,-,N/A,,Clear,240,2013-01-10 02:53:00
10:53 PM,30.9,28.0,89,30.47,10.0,SW,4.6,-,N/A,,Clear,220,2013-01-10 03:53:00
11:53 PM,30.0,27.0,88,30.51,9.0,SW,5.8,-,N/A,,Clear,230,2013-01-10 04:53:00